Regional Weather Roundup
Issued by NWS Raleigh/Durham, NC

Home | Current Version | Previous Version | Text Only | Print | Product List | Glossary On
Versions: 1 2 3 4 5 6 7 8 9 10 11 12 13 14 15 16 17 18 19 20 21 22 23 24 25 26 27 28 29 30 31 32 33 34 35 36 37 38 39 40 41 42 43 44 45 46 47 48
000
ASUS42 KRAH 010410
RWRRAH
NORTH CAROLINA WEATHER ROUNDUP
NATIONAL WEATHER SERVICE RALEIGH NC
1200 AM EDT WED OCT 01 2014

NOTE: "FAIR" INDICATES FEW OR NO CLOUDS BELOW 12,000 FEET WITH NO
SIGNIFICANT WEATHER AND/OR OBSTRUCTIONS TO VISIBILITY.

NCZ001-053-055-056-065-067-010500-
WESTERN NORTH CAROLINA

CITY           SKY/WX    TMP DP  RH WIND       PRES   REMARKS
ASHEVILLE      CLEAR     58  55  90 CALM      30.02R
JEFFERSON      CLEAR     60  48  65 W5        30.04S
MORGANTON      CLEAR     57  57 100 CALM      30.01R
HICKORY        CLEAR     63  61  93 W5        29.95R
RUTHERFORDTON  CLEAR     62  61  96 N3        29.96S
MOUNT AIRY     CLEAR     62  60  92 CALM      29.97S
BOONE          CLEAR     52  52 100 CALM      30.05S FOG
$$

NCZ021-022-025-041-071-084-088-010500-
CENTRAL NORTH CAROLINA

CITY           SKY/WX    TMP DP  RH WIND       PRES   REMARKS
CHARLOTTE      CLEAR     67  61  81 CALM      29.94R
GREENSBORO     CLEAR     64  62  93 CALM      29.94R
WINSTON-SALEM  CLEAR     64  60  87 CALM      29.96R
RALEIGH-DURHAM PTCLDY    61  59  93 CALM      29.94R
FORT BRAGG     CLEAR     62  61  98 CALM      29.92R
FAYETTEVILLE   CLEAR     65  63  93 NE3       29.91S
BURLINGTON     PTCLDY    61  59  93 CALM      29.93S FOG
LAURINBURG     CLEAR     61  60  97 CALM      29.92S FOG
$$

NCZ011-015-027-028-043-044-047-080-103-010500-
NORTHEASTERN NORTH CAROLINA

CITY           SKY/WX    TMP DP  RH WIND       PRES   REMARKS
ROCKY MT-WILSO FOG       59  58  96 CALM      29.92S VSB 1/4
GREENVILLE     FOG       63  63 100 CALM      29.93F VSB 1/4
WASHINGTON     CLEAR     62  61  97 CALM      29.91S
ELIZABETH CITY CLEAR     63  62  97 CALM      29.90S
MANTEO         CLEAR     68  64  87 N8        29.89S
CAPE HATTERAS  CLEAR     68  66  93 N8        29.87S
$$

NCZ078-087-090-091-093-098-101-010500-
SOUTHEASTERN NORTH CAROLINA

CITY           SKY/WX    TMP DP  RH WIND       PRES   REMARKS
LUMBERTON      CLEAR     62  61  96 CALM      29.91S
GOLDSBORO      CLEAR     64  64  98 CALM      29.90S
KINSTON        CLEAR     63  62  97 CALM      29.92S FOG
KENANSVILLE    CLEAR     63  63 100 CALM      29.93R FOG
NEW BERN       CLEAR     67  63  87 CALM      29.91S
CHERRY POINT   CLEAR     68  64  87 N8        29.90S
BEAUFORT       CLEAR     65  62  90 N7        29.89R
JACKSONVILLE   CLEAR     67  64  90 N6        29.90R
WILMINGTON     CLEAR     65  63  93 N6        29.90R
$$



USA.gov is the U.S. government's official web portal to all federal, state and local government web resources and services.